• In Uzbekistan
  • List of Countries
  • For 7 days
  • Water Temperature
  • Satellite Maps
  • Weather Map
  • Weather Widgets
  • user-avatar
    Login

    Hourly Weather Paro

    Today, 26 April, Friday

    Time Temperature Precipitation Wind Pressure Humidity
    00:00 +12°C° 0 mm 1 mps 561 mmHg 91%
    01:00 +12°C° 0 mm 1 mps 561 mmHg 90%
    02:00 +12°C° 0 mm 1 mps 561 mmHg 89%
    03:00 +11°C° 0 mm 1 mps 560 mmHg 87%
    04:00 +11°C° 0 mm 1 mps 560 mmHg 86%
    05:00 +11°C° 0 mm 1 mps 560 mmHg 86%
    06:00 +12°C° 0 mm 1 mps 561 mmHg 79%
    07:00 +14°C° 0 mm 1 mps 562 mmHg 73%
    08:00 +18°C° 0 mm 1 mps 563 mmHg 67%
    09:00 +20°C° 0 mm 1 mps 564 mmHg 61%
    10:00 +19°C° 0.1 mm 2 mps 564 mmHg 64%
    11:00 +19°C° 0.1 mm 2 mps 564 mmHg 66%
    12:00 +19°C° 0 mm 2 mps 564 mmHg 67%
    13:00 +19°C° 0.3 mm 2 mps 563 mmHg 69%
    14:00 +19°C° 0.3 mm 2 mps 563 mmHg 71%
    15:00 +18°C° 0.3 mm 2 mps 562 mmHg 74%
    16:00 +17°C° 0.3 mm 2 mps 562 mmHg 79%
    17:00 +18°C° 0.3 mm 1 mps 561 mmHg 84%
    18:00 +16°C° 0.3 mm 1 mps 561 mmHg 89%
    19:00 +15°C° 0.2 mm 1 mps 561 mmHg 90%
    20:00 +14°C° 0.2 mm 0 mps 561 mmHg 92%
    21:00 +13°C° 0.2 mm 0 mps 561 mmHg 93%
    22:00 +13°C° 0 mm 0 mps 561 mmHg 93%
    23:00 +12°C° 0 mm 0 mps 561 mmHg 94%

    Tomorrow, 27 April, Saturday

    Time Temperature Precipitation Wind Pressure Humidity
    00:00 +12°C° 0 mm 0 mps 561 mmHg 94%
    01:00 +12°C° 0.1 mm 0 mps 561 mmHg 93%
    02:00 +12°C° 0.1 mm 0 mps 560 mmHg 93%
    03:00 +12°C° 0.1 mm 0 mps 560 mmHg 93%
    04:00 +12°C° 0 mm 0 mps 560 mmHg 93%
    05:00 +12°C° 0 mm 0 mps 560 mmHg 92%
    06:00 +12°C° 0 mm 0 mps 560 mmHg 92%
    07:00 +14°C° 0 mm 1 mps 561 mmHg 85%
    08:00 +16°C° 0 mm 1 mps 562 mmHg 78%
    09:00 +19°C° 0 mm 1 mps 563 mmHg 71%
    10:00 +18°C° 0.2 mm 2 mps 563 mmHg 72%
    11:00 +18°C° 0.2 mm 2 mps 563 mmHg 73%
    12:00 +18°C° 0.2 mm 2 mps 563 mmHg 74%
    13:00 +18°C° 0.3 mm 2 mps 562 mmHg 75%
    14:00 +17°C° 0.3 mm 2 mps 561 mmHg 77%
    15:00 +17°C° 0.3 mm 2 mps 561 mmHg 78%
    16:00 +17°C° 0.1 mm 2 mps 560 mmHg 81%
    17:00 +16°C° 0.1 mm 2 mps 560 mmHg 84%
    18:00 +16°C° 0.1 mm 1 mps 560 mmHg 87%
    19:00 +15°C° 0.1 mm 1 mps 560 mmHg 90%
    20:00 +14°C° 0.1 mm 1 mps 560 mmHg 93%
    21:00 +14°C° 0.1 mm 1 mps 561 mmHg 96%
    22:00 +14°C° 0.1 mm 1 mps 561 mmHg 95%
    23:00 +13°C° 0.1 mm 1 mps 560 mmHg 95%

    Day after tomorrow, 28 April, Sunday

    Time Temperature Precipitation Wind Pressure Humidity
    00:00 +13°C° 0.1 mm 1 mps 560 mmHg 95%
    01:00 +13°C° 0.2 mm 1 mps 560 mmHg 94%
    02:00 +13°C° 0.2 mm 1 mps 560 mmHg 93%
    03:00 +13°C° 0.2 mm 1 mps 560 mmHg 93%
    04:00 +13°C° 0.1 mm 1 mps 560 mmHg 93%
    05:00 +13°C° 0.1 mm 1 mps 560 mmHg 93%
    06:00 +12°C° 0.1 mm 0 mps 560 mmHg 93%
    07:00 +15°C° 0.1 mm 1 mps 561 mmHg 86%
    08:00 +16°C° 0.1 mm 1 mps 562 mmHg 80%
    09:00 +19°C° 0.1 mm 1 mps 563 mmHg 73%
    10:00 +18°C° 0.5 mm 2 mps 563 mmHg 73%
    11:00 +19°C° 0.5 mm 2 mps 563 mmHg 72%
    12:00 +19°C° 0.5 mm 2 mps 563 mmHg 72%
    13:00 +19°C° 0.4 mm 2 mps 562 mmHg 73%
    14:00 +19°C° 0.4 mm 2 mps 562 mmHg 73%
    15:00 +18°C° 0.4 mm 2 mps 561 mmHg 74%
    16:00 +18°C° 0.2 mm 2 mps 561 mmHg 79%
    17:00 +17°C° 0.2 mm 2 mps 560 mmHg 83%
    18:00 +16°C° 0.2 mm 1 mps 560 mmHg 87%
    19:00 +15°C° 0.1 mm 1 mps 560 mmHg 90%
    20:00 +14°C° 0.1 mm 1 mps 560 mmHg 92%
    21:00 +14°C° 0.1 mm 1 mps 561 mmHg 95%
    22:00 +14°C° 0.1 mm 1 mps 560 mmHg 94%
    23:00 +14°C° 0.1 mm 1 mps 560 mmHg 93%

    29 April, Monday

    Time Temperature Precipitation Wind Pressure Humidity
    00:00 +13°C° 0.1 mm 1 mps 560 mmHg 93%
    01:00 +13°C° 0.1 mm 1 mps 560 mmHg 92%
    02:00 +13°C° 0.1 mm 1 mps 560 mmHg 92%
    03:00 +13°C° 0.1 mm 1 mps 560 mmHg 92%
    04:00 +13°C° 0 mm 1 mps 560 mmHg 90%
    05:00 +13°C° 0 mm 1 mps 560 mmHg 89%
    06:00 +12°C° 0 mm 1 mps 560 mmHg 87%
    07:00 +15°C° 0 mm 1 mps 562 mmHg 81%
    08:00 +18°C° 0 mm 1 mps 563 mmHg 74%
    09:00 +19°C° 0 mm 2 mps 565 mmHg 67%
    10:00 +19°C° 0.3 mm 2 mps 564 mmHg 70%
    11:00 +19°C° 0.3 mm 2 mps 564 mmHg 72%
    12:00 +19°C° 0.3 mm 2 mps 563 mmHg 75%
    13:00 +19°C° 0.4 mm 2 mps 563 mmHg 73%
    14:00 +20°C° 0.4 mm 2 mps 562 mmHg 71%
    15:00 +20°C° 0.4 mm 2 mps 562 mmHg 69%
    16:00 +19°C° 0.3 mm 2 mps 562 mmHg 74%
    17:00 +18°C° 0.3 mm 2 mps 561 mmHg 80%
    18:00 +18°C° 0.3 mm 1 mps 560 mmHg 85%
    19:00 +16°C° 0.1 mm 1 mps 560 mmHg 89%
    20:00 +15°C° 0.1 mm 1 mps 561 mmHg 92%
    21:00 +13°C° 0.1 mm 0 mps 561 mmHg 96%
    22:00 +14°C° 0.1 mm 1 mps 561 mmHg 95%
    23:00 +13°C° 0.1 mm 1 mps 560 mmHg 95%

    30 April, Tuesday

    Time Temperature Precipitation Wind Pressure Humidity
    00:00 +13°C° 0.1 mm 1 mps 560 mmHg 95%
    01:00 +13°C° 0 mm 1 mps 560 mmHg 93%
    02:00 +12°C° 0 mm 1 mps 559 mmHg 92%
    03:00 +12°C° 0 mm 1 mps 559 mmHg 91%
    04:00 +12°C° 0 mm 1 mps 559 mmHg 89%
    05:00 +12°C° 0 mm 1 mps 559 mmHg 87%
    06:00 +12°C° 0 mm 1 mps 560 mmHg 85%
    07:00 +14°C° 0.1 mm 1 mps 561 mmHg 79%
    08:00 +16°C° 0.1 mm 1 mps 562 mmHg 72%
    09:00 +18°C° 0.1 mm 2 mps 564 mmHg 66%
    10:00 +18°C° 0.3 mm 2 mps 563 mmHg 66%
    11:00 +18°C° 0.3 mm 2 mps 563 mmHg 66%
    12:00 +19°C° 0.3 mm 2 mps 563 mmHg 67%
    13:00 +19°C° 0.3 mm 2 mps 562 mmHg 65%
    14:00 +19°C° 0.3 mm 3 mps 562 mmHg 64%
    15:00 +19°C° 0.3 mm 3 mps 561 mmHg 62%
    16:00 +18°C° 0.1 mm 2 mps 561 mmHg 68%
    17:00 +17°C° 0.1 mm 2 mps 560 mmHg 74%
    18:00 +16°C° 0.1 mm 2 mps 559 mmHg 80%
    19:00 +15°C° 0 mm 1 mps 559 mmHg 84%
    20:00 +14°C° 0 mm 1 mps 559 mmHg 88%
    21:00 +13°C° 0 mm 1 mps 560 mmHg 92%
    22:00 +13°C° 0.1 mm 1 mps 560 mmHg 91%
    23:00 +13°C° 0.1 mm 1 mps 560 mmHg 89%

    1 May, Wednesday

    Time Temperature Precipitation Wind Pressure Humidity
    00:00 +13°C° 0.1 mm 1 mps 560 mmHg 88%
    01:00 +12°C° 0 mm 1 mps 559 mmHg 88%
    02:00 +12°C° 0 mm 1 mps 559 mmHg 88%
    03:00 +12°C° 0 mm 1 mps 559 mmHg 88%
    04:00 +12°C° 0 mm 1 mps 559 mmHg 88%
    05:00 +11°C° 0 mm 1 mps 559 mmHg 87%
    06:00 +11°C° 0 mm 1 mps 559 mmHg 86%
    07:00 +14°C° 0 mm 1 mps 560 mmHg 78%
    08:00 +16°C° 0 mm 1 mps 562 mmHg 69%
    09:00 +19°C° 0 mm 2 mps 564 mmHg 61%
    10:00 +19°C° 0.2 mm 2 mps 563 mmHg 62%
    11:00 +19°C° 0.2 mm 2 mps 563 mmHg 62%
    12:00 +19°C° 0.2 mm 3 mps 562 mmHg 63%
    13:00 +19°C° 0.3 mm 3 mps 562 mmHg 62%
    14:00 +19°C° 0.3 mm 3 mps 561 mmHg 62%
    15:00 +19°C° 0.3 mm 3 mps 561 mmHg 61%
    16:00 +18°C° 0.2 mm 2 mps 560 mmHg 67%
    17:00 +17°C° 0.2 mm 2 mps 560 mmHg 72%
    18:00 +16°C° 0.2 mm 2 mps 559 mmHg 77%
    19:00 +15°C° 0.1 mm 2 mps 559 mmHg 82%
    20:00 +14°C° 0.1 mm 1 mps 559 mmHg 87%
    21:00 +13°C° 0.1 mm 1 mps 560 mmHg 92%
    22:00 +13°C° 0.1 mm 1 mps 559 mmHg 91%
    23:00 +13°C° 0.1 mm 1 mps 559 mmHg 90%
    Show more